Regional Weather Roundup
Issued by NWS

Home | Current Version | Previous Version | Graphics & Text | Print | Product List | Glossary On
Versions: 1 2 3 4 5 6 7 8 9 10 11 12 13 14 15 16 17 18 19 20 21 22 23 24 25 26 27 28 29 30 31 32 33 34 35 36 37 38 39 40 41 42 43 44 45 46 47 48 49 50
505
ASUS43 KLMK 311602
RWRKY
KENTUCKY REGIONAL WEATHER ROUNDUP
NATIONAL WEATHER SERVICE LOUISVILLE KY
1200 PM EDT TUE MAY 31 2016

NOTE "FAIR" INDICATES FEW OR NO CLOUDS BELOW 12,000 FEET
WITH NO SIGNIFICANT WEATHER AND/OR OBSTRUCTIONS TO VISIBILITY.

KYZ001>023-026-027-061>063-070>075-311700-
WESTERN AND SOUTH CENTRAL KENTUCKY

CITY           SKY/WX    TMP DP  RH WIND       PRES   REMARKS
PADUCAH        MOSUNNY   83  64  52 VRB3      29.97S
HENDERSON      MOSUNNY   81  63  54 SE3       29.97R
OWENSBORO      MOSUNNY   85  63  47 SE10      29.99R
HOPKINSVILLE   NOT AVBL
BOWLING GREEN  CLOUDY    81  67  62 NE5       30.00S
GLASGOW        NOT AVBL
$$

KYZ024-025-028>034-038-045-046-053-311700-
NORTH CENTRAL KENTUCKY

CITY           SKY/WX    TMP DP  RH WIND       PRES   REMARKS
LOUISVILLE/SDF CLOUDY    83  60  45 E7        29.99F
LOUISVILLE/LOU CLOUDY    83  59  44 CALM      30.00F
FORT KNOX      NOT AVBL
$$

KYZ035>037-039>044-047>052-055>060-089>105-311700-
NORTHEAST KENTUCKY

CITY           SKY/WX    TMP DP  RH WIND       PRES   REMARKS
LEXINGTON      CLOUDY    82  59  45 MISG      30.03S
COVINGTON      NOT AVBL
FRANKFORT      CLOUDY    84  58  40 NE5       30.01S
$$

KYZ054-064>069-076>088-106>120-311700-
SOUTHEAST KENTUCKY

CITY           SKY/WX    TMP DP  RH WIND       PRES   REMARKS
JACKSON        CLOUDY    80  63  55 VRB5      30.05F
LONDON         SUNNY     80  61  52 NE8       30.03F
SOMERSET       NOT AVBL
MIDDLESBORO    SUNNY     79  65  62 CALM      30.02F
MONTICELLO     MOSUNNY   82  66  58 VRB7      30.03S
$$





USA.gov is the U.S. government's official web portal to all federal, state and local government web resources and services.